Current weather by "City, St" or "zip code"  
 

Current Conditions: Rutland-Southern Vermont Regional Airport, VT

Overcast


61.0 F

Last Updated on Aug 9 2022, 11:56 pm EDT
Humidity: 100%
Wind Speed: N 0.0 mph
Barometer 30.07 in
Dewpoint: 61.0 F
Visibility: 10.00 mi
Precip: --
Heat Index: NA
Wind Chill: NA
Current conditions at:

Rutland-Southern Vermont Regional Airport, VT (KRUT)

Lat: 43.53333 Lon: 72.95

Local Radar Image active severe weather and emergency alerts image image weather storm and storm spotter reports image weather observation monitoring service image
Local
Radar
Active
Alerts
Storm Reports Obs
Monitoring

Sign-up For Email & Text Message Weather Alert Notification Services



Advertise Here

Observation History for Rutland-Southern Vermont Regional Airport, VT


Time Wind
(mph)
Vis
(mi)
Weather Precip (in) Temperature (F) Relative
Humidity
Wind
Chill
(F)
Heat
Index
(F)
Pressure
Air Dwpt altimeter
(in)
sea level
(mb)
Rmks
11:56 pm EDT N 0.0 10.00 Overcast -- 61.0 61.0 100% NA NA 30.07 1017.3
9:56 pm EDT N 0.0 10.00 Overcast -- 63.0 60.1 90% NA NA 30.06 1017.3
8:56 pm EDT N 5.8 10.00 Mostly Cloudy -- 65.0 60.1 84% NA NA 30.05 1016.8
7:56 pm EDT N 5.8 10.00 Overcast -- 67.0 60.1 79% NA NA 30.03 1016.0
6:56 pm EDT NW 9.2 10.00 Overcast -- 70.0 61.0 73% NA NA 30.01 1015.3
5:56 pm EDT 6.9 10.00 Overcast -- 72.0 63.0 73% NA NA 29.98 1014.3
4:56 pm EDT NW 10.4 10.00 Partly Cloudy -- 73.0 63.0 71% NA NA 29.95 1013.4
3:56 pm EDT NW 11.5 G 18.4 10.00 Fair -- 75.0 66.0 74% NA NA 29.95 1012.9
2:56 pm EDT N 15.0 G 19.6 10.00 Fair -- 76.0 66.9 74% NA NA 29.93 1012.4
1:56 pm EDT N 15.0 10.00 Fair -- 77.0 69.1 77% NA NA 29.91 1011.7
12:56 pm EDT N 9.2 10.00 Mostly Cloudy 00.03 74.0 72.0 94% NA NA 29.90 1011.6
11:56 am EDT N 15.0 G 18.4 10.00 Light Rain Trace 75.0 73.9 96% NA NA 29.88 1010.6
10:56 am EDT SW 9.2 10.00 Mostly Cloudy -- 81.0 73.0 77% NA 86 29.87 1010.3
9:56 am EDT 6.9 10.00 Overcast -- 79.0 73.9 85% NA NA 29.87 1010.3
7:56 am EDT SW 6.9 10.00 Overcast -- 77.0 72.0 85% NA NA 29.86 1010.0
6:56 am EDT 5.8 10.00 Overcast -- 75.0 73.0 94% NA NA 29.85 1009.6
5:56 am EDT NE 4.6 10.00 Overcast -- 74.0 73.0 97% NA NA 29.83 1009.1
4:56 am EDT 6.9 10.00 Mostly Cloudy 00.05 75.0 72.0 90% NA NA 29.82 1008.7
3:56 am EDT SW 10.4 G 17.3 10.00 Light Rain Trace 78.0 71.1 79% NA NA 29.82 1008.7
2:56 am EDT S 4.6 10.00 Overcast -- 76.0 72.0 88% NA NA 29.82 1008.5
1:56 am EDT 4.6 9.00 Overcast -- 76.0 72.0 88% NA NA 29.82 1008.9
12:56 am EDT SE 4.6 10.00 Overcast Trace 74.0 73.9 100% NA NA 29.84 1009.5

Regional Weather Observation


Rutland-Southern Vermont Regional Airport, VT (KRUT)

Overcast
61.0 F

Glens Falls, Floyd Bennett Memorial Airport, NY (KGFL)

Mostly Cloudy
64.0 F

Springfield, Hartness State Springfield Airport, VT (KVSF)

Mostly Cloudy
66.0 F

Lebanon Municipal Airport, NH (KLEB)

Overcast
68.0 F

Barre / Montpelier, Knapp State Airport, VT (KMPV)

Overcast
62.0 F

Burlington, Burlington International Airport, VT (KBTV)

Overcast
64.0 F

Advertise Here


Advertise Here